Location: *
(46.3500°N, 10.9000°E)
Time: 22:41:29
(UTC+00:00)

Vanguard 2 - Pass Details

Date: 26 April 2021
Orbit: 552 x 2938 km, 32.9° (Epoch: 11 May)

Event Time Altitude Azimuth Distance (km) Brightness Sun altitude
Rises 07:32:20 0° 200° (SSW) 6,431 12.2 33.4°
Reaches altitude 10° 07:37:51 10° 187° (S) 5,627 12.1 34.3°
Maximum altitude 07:49:55 23° 143° (SE) 4,701 12.7 36.3°
Drops below altitude 10° 08:01:28 10° 100° (E) 5,421 13.0 38.2°
Sets 08:06:32 0° 88° (E) 6,156 12.9 39.0°
